When you browse on this site, cookies collect data to enhance your experience and personalize the content and advertising you see.
Visit our Privacy Policy to learn more. By continuing to use the site, you agree to this use of cookies and data.
  • In Hungary
  • List of Countries
  • For 7 days
  • Water Temperature
  • Satellite Maps
  • Weather Map
  • News
  • Weather Widgets
  • user-avatar
    Login

    Hourly Weather Belogorovka

    Today, 20 July, Saturday

    Time Temperature Precipitation Wind Pressure Humidity
    00:00 +22°C° 0 mm 1 mps 754 mmHg 58%
    01:00 +21°C° 0 mm 1 mps 754 mmHg 60%
    02:00 +20°C° 0 mm 2 mps 754 mmHg 58%
    03:00 +20°C° 0 mm 2 mps 755 mmHg 58%
    04:00 +20°C° 0 mm 2 mps 755 mmHg 59%
    05:00 +20°C° 0 mm 2 mps 755 mmHg 60%
    06:00 +23°C° 0 mm 2 mps 755 mmHg 53%
    07:00 +25°C° 0 mm 2 mps 755 mmHg 47%
    08:00 +27°C° 0 mm 2 mps 755 mmHg 40%
    09:00 +28°C° 0 mm 2 mps 755 mmHg 38%
    10:00 +29°C° 0 mm 3 mps 756 mmHg 36%
    11:00 +30°C° 0 mm 3 mps 756 mmHg 34%
    12:00 +30°C° 0 mm 3 mps 755 mmHg 34%
    13:00 +30°C° 0 mm 3 mps 755 mmHg 34%
    14:00 +31°C° 0 mm 3 mps 755 mmHg 34%
    15:00 +30°C° 0 mm 3 mps 755 mmHg 35%
    16:00 +29°C° 0 mm 3 mps 755 mmHg 37%
    17:00 +28°C° 0 mm 3 mps 755 mmHg 39%
    18:00 +27°C° 0 mm 3 mps 755 mmHg 43%
    19:00 +25°C° 0 mm 3 mps 755 mmHg 47%
    20:00 +22°C° 0 mm 3 mps 755 mmHg 52%
    21:00 +22°C° 0 mm 3 mps 755 mmHg 53%
    22:00 +21°C° 0 mm 3 mps 755 mmHg 54%
    23:00 +21°C° 0 mm 3 mps 755 mmHg 55%

    Tomorrow, 21 July, Sunday

    Time Temperature Precipitation Wind Pressure Humidity
    00:00 +21°C° 0 mm 3 mps 754 mmHg 56%
    01:00 +20°C° 0 mm 3 mps 754 mmHg 57%
    02:00 +20°C° 0 mm 4 mps 754 mmHg 58%
    03:00 +20°C° 0 mm 4 mps 754 mmHg 59%
    04:00 +20°C° 0 mm 4 mps 754 mmHg 60%
    05:00 +20°C° 0 mm 4 mps 754 mmHg 60%
    06:00 +22°C° 0 mm 4 mps 754 mmHg 57%
    07:00 +25°C° 0 mm 4 mps 754 mmHg 54%
    08:00 +27°C° 0 mm 5 mps 754 mmHg 51%
    09:00 +28°C° 0 mm 5 mps 754 mmHg 47%
    10:00 +30°C° 0 mm 5 mps 754 mmHg 42%
    11:00 +32°C° 0 mm 5 mps 754 mmHg 37%
    12:00 +32°C° 0 mm 5 mps 754 mmHg 38%
    13:00 +32°C° 0 mm 5 mps 754 mmHg 39%
    14:00 +32°C° 0 mm 5 mps 753 mmHg 39%
    15:00 +30°C° 0 mm 4 mps 753 mmHg 41%
    16:00 +30°C° 0 mm 4 mps 754 mmHg 42%
    17:00 +29°C° 0 mm 3 mps 754 mmHg 44%
    18:00 +27°C° 0 mm 3 mps 754 mmHg 51%
    19:00 +25°C° 0 mm 2 mps 754 mmHg 58%
    20:00 +24°C° 0 mm 1 mps 754 mmHg 64%
    21:00 +23°C° 0 mm 1 mps 754 mmHg 64%
    22:00 +23°C° 0 mm 1 mps 754 mmHg 64%
    23:00 +22°C° 0 mm 1 mps 754 mmHg 64%

    Day after tomorrow, 22 July, Monday

    Time Temperature Precipitation Wind Pressure Humidity
    00:00 +21°C° 0 mm 2 mps 754 mmHg 65%
    01:00 +21°C° 0 mm 2 mps 754 mmHg 66%
    02:00 +21°C° 0 mm 2 mps 754 mmHg 66%
    03:00 +21°C° 0 mm 2 mps 754 mmHg 66%
    04:00 +21°C° 0 mm 2 mps 754 mmHg 66%
    05:00 +21°C° 0 mm 2 mps 754 mmHg 66%
    06:00 +24°C° 0 mm 2 mps 754 mmHg 61%
    07:00 +26°C° 0 mm 2 mps 754 mmHg 55%
    08:00 +28°C° 0 mm 2 mps 754 mmHg 50%
    09:00 +29°C° 0 mm 2 mps 754 mmHg 46%
    10:00 +30°C° 0 mm 2 mps 754 mmHg 42%
    11:00 +31°C° 0 mm 3 mps 754 mmHg 39%
    12:00 +31°C° 0 mm 2 mps 754 mmHg 38%
    13:00 +32°C° 0 mm 2 mps 754 mmHg 37%
    14:00 +32°C° 0 mm 2 mps 753 mmHg 36%
    15:00 +31°C° 0 mm 2 mps 753 mmHg 38%
    16:00 +31°C° 0 mm 2 mps 753 mmHg 40%
    17:00 +30°C° 0 mm 2 mps 753 mmHg 42%
    18:00 +28°C° 0 mm 2 mps 753 mmHg 49%
    19:00 +27°C° 0 mm 2 mps 752 mmHg 56%
    20:00 +25°C° 0 mm 2 mps 752 mmHg 63%
    21:00 +24°C° 0 mm 2 mps 752 mmHg 62%
    22:00 +24°C° 0 mm 1 mps 752 mmHg 60%
    23:00 +24°C° 0 mm 1 mps 752 mmHg 59%

    23 July, Tuesday

    Time Temperature Precipitation Wind Pressure Humidity
    00:00 +24°C° 0 mm 1 mps 752 mmHg 58%
    01:00 +23°C° 0 mm 2 mps 751 mmHg 58%
    02:00 +23°C° 0 mm 2 mps 751 mmHg 58%
    03:00 +23°C° 0 mm 2 mps 751 mmHg 59%
    04:00 +22°C° 0 mm 3 mps 751 mmHg 60%
    05:00 +22°C° 0 mm 3 mps 750 mmHg 61%
    06:00 +24°C° 0 mm 3 mps 750 mmHg 57%
    07:00 +26°C° 0 mm 3 mps 750 mmHg 53%
    08:00 +28°C° 0 mm 2 mps 750 mmHg 48%
    09:00 +29°C° 0 mm 2 mps 750 mmHg 46%
    10:00 +30°C° 0 mm 2 mps 750 mmHg 43%
    11:00 +31°C° 0 mm 2 mps 750 mmHg 41%
    12:00 +29°C° 0.8 mm 2 mps 750 mmHg 55%
    13:00 +26°C° 0.8 mm 3 mps 750 mmHg 69%
    14:00 +23°C° 0.8 mm 4 mps 750 mmHg 83%
    15:00 +23°C° 0.3 mm 4 mps 750 mmHg 82%
    16:00 +24°C° 0.3 mm 3 mps 750 mmHg 80%
    17:00 +24°C° 0.3 mm 3 mps 749 mmHg 78%
    18:00 +24°C° 0 mm 2 mps 749 mmHg 78%
    19:00 +24°C° 0 mm 2 mps 749 mmHg 77%
    20:00 +24°C° 0 mm 2 mps 749 mmHg 77%
    21:00 +23°C° 0 mm 1 mps 749 mmHg 77%
    22:00 +23°C° 0 mm 1 mps 749 mmHg 78%
    23:00 +22°C° 0 mm 1 mps 749 mmHg 78%

    24 July, Wednesday

    Time Temperature Precipitation Wind Pressure Humidity
    00:00 +21°C° 0.2 mm 2 mps 749 mmHg 80%
    01:00 +20°C° 0.2 mm 2 mps 749 mmHg 82%
    02:00 +20°C° 0.2 mm 2 mps 749 mmHg 83%
    03:00 +20°C° 0 mm 2 mps 749 mmHg 82%
    04:00 +20°C° 0 mm 2 mps 748 mmHg 81%
    05:00 +22°C° 0 mm 1 mps 748 mmHg 79%
    06:00 +23°C° 0 mm 2 mps 748 mmHg 74%
    07:00 +24°C° 0 mm 2 mps 748 mmHg 69%
    08:00 +25°C° 0 mm 2 mps 749 mmHg 63%
    09:00 +26°C° 0.3 mm 1 mps 749 mmHg 61%
    10:00 +27°C° 0.3 mm 1 mps 749 mmHg 59%
    11:00 +28°C° 0.3 mm 1 mps 749 mmHg 57%
    12:00 +28°C° 0.6 mm 2 mps 749 mmHg 55%
    13:00 +28°C° 0.6 mm 2 mps 749 mmHg 53%
    14:00 +29°C° 0.6 mm 3 mps 749 mmHg 51%
    15:00 +28°C° 0.2 mm 3 mps 749 mmHg 53%
    16:00 +28°C° 0.2 mm 3 mps 749 mmHg 55%
    17:00 +27°C° 0.2 mm 4 mps 749 mmHg 57%
    18:00 +26°C° 0.2 mm 3 mps 749 mmHg 63%
    19:00 +24°C° 0.2 mm 3 mps 749 mmHg 69%
    20:00 +21°C° 0.2 mm 3 mps 749 mmHg 75%
    21:00 +21°C° 0.1 mm 4 mps 749 mmHg 77%
    22:00 +20°C° 0.1 mm 4 mps 749 mmHg 78%
    23:00 +20°C° 0.1 mm 5 mps 749 mmHg 80%

    25 July, Thursday

    Time Temperature Precipitation Wind Pressure Humidity
    00:00 +19°C° 0.5 mm 4 mps 749 mmHg 81%
    01:00 +19°C° 0.5 mm 4 mps 749 mmHg 82%
    02:00 +19°C° 0.5 mm 3 mps 749 mmHg 84%
    03:00 +19°C° 0.3 mm 3 mps 749 mmHg 82%
    04:00 +19°C° 0.3 mm 2 mps 749 mmHg 81%
    05:00 +19°C° 0.3 mm 2 mps 749 mmHg 79%
    06:00 +20°C° 0.1 mm 2 mps 749 mmHg 74%
    07:00 +23°C° 0.1 mm 2 mps 749 mmHg 70%
    08:00 +24°C° 0.1 mm 1 mps 749 mmHg 65%
    09:00 +24°C° 1 mm 1 mps 749 mmHg 64%
    10:00 +25°C° 1 mm 1 mps 750 mmHg 64%
    11:00 +25°C° 1 mm 1 mps 750 mmHg 63%
    12:00 +25°C° 1.7 mm 1 mps 750 mmHg 64%
    13:00 +25°C° 1.7 mm 2 mps 750 mmHg 65%
    14:00 +26°C° 1.7 mm 2 mps 750 mmHg 66%
    15:00 +26°C° 0.4 mm 2 mps 750 mmHg 66%
    16:00 +26°C° 0.4 mm 2 mps 750 mmHg 65%
    17:00 +26°C° 0.4 mm 2 mps 749 mmHg 64%
    18:00 +25°C° 0.1 mm 2 mps 750 mmHg 69%
    19:00 +23°C° 0.1 mm 2 mps 750 mmHg 74%
    20:00 +21°C° 0.1 mm 2 mps 750 mmHg 78%
    21:00 +21°C° 0.1 mm 2 mps 750 mmHg 78%
    22:00 +21°C° 0.1 mm 2 mps 750 mmHg 78%
    23:00 +21°C° 0.1 mm 2 mps 750 mmHg 77%
    Show more